Content
SEND FEEDBACK

Daily
Averages
Monthly
Summary
United Kingdom

LONDON, ENGLAND


Home > Europe > United Kingdom > England
Elevation: 203 feet     Latitude: 51 09N     Longitude: 000 11W

WEATHER
 
SELECT A DAY
Number of Records: 292,972;   Date Range: 7/1/96 - 7/29/14
 
SHARE

PRINT THIS DATA

[ ← Previous Day ]
WEATHER ALMANAC - NOVEMBER 1, 2013
[ Next Day → ]
[ °C ]   °F
Weather ElementAverageHighLow
Temperature53.6 °F55.4 °F (2:20 am)51.8 °F (5:50 am)
Dewpoint51.7 °F53.6 °F (10:50 am)50 °F (6:50 am)
Humidity93.5 %100 % (5:50 am)82 % (3:50 pm)
Barometer29.79 in29.95 in (12:50 am)29.53 in (11:20 pm)
Wind Speed6.6 mph13.8 mph (3:50 am)
Weather ElementAverage
Visibility5.8 mi
Wind DirectionSSE (152.8 °)

Weather ElementTotal
Precipitation---
Heating Degree Days11.4 (Base 65)
Growing Degree Days3.6 (Base 50)
Averaged from 47 records on November 1, 2013
WEATHER CONDITIONS BREAKOUT
WIND DIRECTION BREAKOUT
WEATHER BY HOUR - NOVEMBER 1, 2013
[ °C ]   °F
Local TimeTemperatureDewpointHumidityBarometerVisibilityWind DirectionWind SpeedGust SpeedPrecipitationEventsConditions
12:50 AM53.6 °F51.8 °F94 %29.95 in6.2 miSSW (210°)8.1 mphRainLight Rain
1:20 AM53.6 °F51.8 °F94 %29.95 in5.6 miSSW (210°)9.2 mphRainLight Rain
1:50 AM53.6 °F51.8 °F94 %29.92 in6.2 miSSW (210°)9.2 mphRainLight Rain
2:20 AM55.4 °F51.8 °F88 %29.92 inSSW (210°)9.2 mphClear
2:50 AM55.4 °F51.8 °F88 %29.92 in5.0 miSSW (210°)10.4 mphRainLight Rain
3:20 AM53.6 °F51.8 °F94 %29.92 in6.2 miSW (220°)9.2 mphMostly Cloudy
3:50 AM53.6 °F51.8 °F94 %29.92 in6.2 miSW (230°)13.8 mphMostly Cloudy
4:20 AM53.6 °F51.8 °F94 %29.89 in6.2 miSW (230°)10.4 mphScattered Clouds
4:50 AM53.6 °F51.8 °F94 %29.89 in6.2 miSW (220°)8.1 mphPartly Cloudy
5:20 AM53.6 °F51.8 °F94 %29.89 in6.2 miSW (220°)5.8 mphPartly Cloudy
5:50 AM51.8 °F51.8 °F100 %29.89 in6.2 miSSW (210°)5.8 mphPartly Cloudy
6:20 AM51.8 °F51.8 °F100 %29.89 in6.2 miSSW (210°)4.6 mphRainLight Rain
6:50 AM51.8 °F50.0 °F94 %29.89 in6.2 miSSW (200°)4.6 mphRainLight Rain
7:20 AM51.8 °F50.0 °F94 %29.92 in6.2 miSSW (210°)4.6 mphPartly Cloudy
7:50 AM51.8 °F51.8 °F100 %29.92 in6.2 miSouth (190°)5.8 mphPartly Cloudy
8:20 AM53.6 °F51.8 °F94 %29.92 in6.2 miSSW (200°)4.6 mphRainLight Rain
8:50 AM53.6 °F51.8 °F94 %29.92 in6.2 miSSW (200°)4.6 mphRainLight Rain
9:20 AM53.6 °F51.8 °F94 %29.89 in6.2 miVariable3.5 mph
9:50 AM55.4 °F51.8 °F88 %29.89 in6.2 miSouth (180°)5.8 mphPartly Cloudy
10:20 AM55.4 °F51.8 °F88 %29.89 in6.2 miSSW (200°)6.9 mphPartly Cloudy
10:50 AM55.4 °F53.6 °F94 %29.86 in6.2 miSouth (190°)5.8 mphScattered Clouds
11:20 AM55.4 °F53.6 °F94 %29.86 in3.1 miSSW (210°)6.9 mphLight Drizzle
11:50 AM55.4 °F53.6 °F94 %29.83 in5.0 miSW (220°)4.6 mphRainLight Rain
12:20 PM55.4 °F53.6 °F94 %29.83 in4.3 miSSW (210°)8.1 mphRainLight Rain
12:50 PM55.4 °F53.6 °F94 %29.83 in6.2 miSSW (210°)9.2 mphRainLight Rain
1:20 PM55.4 °F53.6 °F94 %29.80 in6.2 miSSW (210°)9.2 mphMostly Cloudy
1:50 PM55.4 °F53.6 °F94 %29.80 in6.2 miSSW (200°)9.2 mphScattered Clouds
2:20 PM55.4 °F51.8 °F88 %29.77 in6.2 miSSW (200°)11.5 mphScattered Clouds
2:50 PM55.4 °F51.8 °F88 %29.77 in6.2 miSouth (190°)10.4 mphScattered Clouds
3:20 PM55.4 °F51.8 °F88 %29.77 in6.2 miSouth (190°)8.1 mphScattered Clouds
3:50 PM55.4 °F50.0 °F82 %29.74 in6.2 miSouth (180°)4.6 mphScattered Clouds
4:20 PM53.6 °F50.0 °F88 %29.74 in6.2 miVariable3.5 mphScattered Clouds
4:50 PM53.6 °F51.8 °F94 %29.71 in6.2 miVariable3.5 mphScattered Clouds
5:20 PM53.6 °F51.8 °F94 %29.71 in6.2 miVariable3.5 mphScattered Clouds
5:50 PM53.6 °F51.8 °F94 %29.71 in6.2 miVariable2.3 mphMostly Cloudy
6:20 PM53.6 °F51.8 °F94 %29.68 in6.2 miSE (130°)3.5 mphScattered Clouds
6:50 PM53.6 °F50.0 °F88 %29.65 in6.2 miSE (130°)4.6 mphScattered Clouds
7:20 PM53.6 °F50.0 °F88 %29.65 inESE (110°)4.6 mphClear
7:50 PM51.8 °F50.0 °F94 %29.62 in6.2 miESE (120°)4.6 mphRainLight Rain
8:20 PM51.8 °F51.8 °F100 %29.62 in6.2 miESE (110°)4.6 mphRainLight Rain
8:50 PM51.8 °F50.0 °F94 %29.59 in6.2 miEast (90°)5.8 mphRainLight Rain
9:20 PM51.8 °F50.0 °F94 %29.59 in6.2 miENE (70°)4.6 mphRainLight Rain
9:50 PM51.8 °F51.8 °F100 %29.56 in5.6 miNE (50°)5.8 mphRainLight Rain
10:20 PM51.8 °F50.0 °F94 %29.56 in4.3 miENE (60°)4.6 mphRainLight Rain
10:50 PM51.8 °F51.8 °F100 %29.56 in3.7 miENE (60°)4.6 mphMostly Cloudy
11:20 PM51.8 °F51.8 °F100 %29.53 in3.1 miNE (40°)8.1 mphMostly Cloudy
11:50 PM51.8 °F51.8 °F100 %29.53 in4.3 miNNE (30°)8.1 mphMostly Cloudy
Hourly data recorded from EGKK, located miles away from London, England







STORIES FROM OUR PARTNERS